Weather observations for the past three days for
Temple, Draughon-Miller Central Texas Regional Airport
Imperial (Metric)
Date Time (cdt) Wind (mph) Vis. (mi.) Weather Sky Cond. Temperature (ºF) Relative Humidity Wind Chill (°F) Heat Index (°F) Pressure Precipitation (in)
Air Dwpt 6 hour altimeter (in) sea level (mb) 1 hr 3 hr 6 hr
Max. Min.
04 11:51 S 18 G 24 0.00 A Few Clouds FEW031 75.9 61 60% 78 29.94 1013.0
04 10:51 S 21 G 25 0.00 A Few Clouds and Breezy FEW027 73 59 62% 29.96 1013.5
04 09:51 S 15 0.00 Fair CLR 69.1 57.9 68% 29.97 1014.1
04 08:51 S 14 0.00 Fair CLR 64 55.9 75% 29.98 1014.3
04 07:51 S 10 0.00 Fair CLR 60.1 55 84% 29.97 1014.1
04 06:51 S 8 0.00 Fair CLR 55.9 54 63 55.9 93% 29.96 1013.8
04 05:51 S 8 0.00 Fair CLR 57 54 90% 29.97 1013.8
04 04:51 S 8 0.00 Fair CLR 57 54 90% 29.98 1014.1
04 03:51 S 9 0.00 Fair CLR 57.9 54 87% 29.98 1014.2
04 02:51 S 9 0.00 Fair CLR 59 54 83% 29.99 1014.5
04 01:51 S 13 0.00 Fair CLR 61 54 78% 30.02 1015.7
04 00:51 S 13 0.00 Fair CLR 63 53.1 73.9 62.1 70% 30.03 1016.2
03 23:51 S 14 0.00 Fair CLR 64 51.1 63% 30.04 1016.4
03 22:51 S 8 0.00 Fair CLR 62.1 52 70% 30.05 1016.5
03 21:51 S 8 0.00 Fair CLR 64 50 60% 30.05 1016.5
03 20:51 SE 6 0.00 Fair CLR 66 50 56% 30.03 1016.0
03 19:51 SE 7 0.00 Fair CLR 69.1 51.1 53% 30.03 1016.2
03 18:51 S 12 0.00 Fair CLR 73.9 50 80.1 73.9 43% 30.04 1016.6
03 17:51 S 15 G 22 0.00 Fair CLR 78.1 48.9 36% 79 30.05 1016.8
03 16:51 S 15 G 23 0.00 Fair CLR 79 48.9 35% 79 30.07 1017.3
03 15:51 S 12 0.00 Fair CLR 79 48 34% 79 30.1 1018.3
03 14:51 S 16 0.00 Fair CLR 79 48.9 35% 79 30.12 1019.3
03 13:51 S 15 G 20 0.00 Fair CLR 79 48.9 35% 79 30.15 1020.1
03 12:51 S 10 0.00 Fair CLR 79 48 79 51.1 34% 79 30.18 1021.1
03 11:51 S 9 0.00 Fair CLR 79 50 36% 79 30.21 1021.9
03 10:51 SW 8 0.00 Fair CLR 75.9 52 43% 78 30.22 1022.3
03 09:51 SW 7 0.00 Fair CLR 72 53.1 52% 30.21 1022.3
03 08:51 W 8 0.00 Fair CLR 66 54 65% 30.21 1022.3
03 07:51 Calm 0.00 Fair CLR 55 52 90% 30.2 1021.9
03 06:51 Calm 0.00 Fair CLR 51.1 48.9 55.9 50 92% 30.17 1021.2
03 05:51 Calm 0.00 Fair CLR 52 48.9 89% 30.16 1020.8
03 04:51 Calm 0.00 Fair CLR 53.1 48.9 86% 30.16 1020.7
03 03:51 S 3 0.00 Fair CLR 54 50 87% 30.16 1020.5
03 02:51 S 3 0.00 Fair CLR 55 50 83% 30.16 1020.6
03 01:51 S 3 0.00 Fair CLR 54 50 87% 30.17 1021.0
03 00:51 S 3 0.00 Fair CLR 55.9 51.1 72 55.9 84% 30.18 1021.2
02 23:51 S 6 0.00 Fair CLR 57 50 78% 30.17 1021.1
02 22:51 S 3 0.00 Fair CLR 62.1 48 60% 30.17 1020.8
02 21:51 SE 3 0.00 Fair CLR 62.1 48.9 62% 30.16 1020.5
02 20:51 Calm 0.00 Fair CLR 64 51.1 63% 30.14 1020.0
02 19:51 E 6 0.00 Fair CLR 68 50 53% 30.12 1019.4
02 18:51 N 6 0.00 Fair CLR 72 48 75 70 43% 30.12 1019.2
02 17:51 N 6 0.00 Fair CLR 73.9 46 37% 30.11 1019.2
02 16:51 NE 7 0.00 Fair CLR 73.9 46 37% 30.12 1019.5
02 15:51 N 8 0.00 Fair CLR 73.9 45 36% 30.14 1020.2
02 14:51 NE 8 0.00 Fair CLR 73.9 48 40% 30.15 1020.6
02 13:51 Vrbl 6 0.00 Fair CLR 73 48.9 43% 30.16 1020.9
02 12:51 Vrbl 6 0.00 Fair CLR 70 50 71.1 45 49% 30.2 1022.0
02 11:51 Vrbl 5 0.00 Fair CLR 68 50 53% 30.22 1022.7
02 10:51 NW 7 0.00 Fair CLR 66.9 51.1 57% 30.22 1022.8
02 09:51 W 7 0.00 Fair CLR 64 51.1 63% 30.22 1022.7
02 08:51 N 7 0.00 Fair CLR 57 52 83% 30.2 1022.1
02 07:51 NW 6 0.00 Fair CLR 51.1 50 96% 30.19 1021.7
02 06:51 N 5 0.00 Fair CLR 46 45 51.1 45 96% 44 30.14 1020.4 0.01
02 05:51 N 7 0.00 Fair CLR 46 45 96% 43 30.12 1019.6
02 04:51 N 6 0.00 Fair CLR 48 46.9 96% 46 30.11 1019.1
02 03:51 NW 8 0.00 Fair CLR 46.9 46 97% 44 30.1 1019.1 0.01
02 02:51 NW 6 0.00 Fair CLR 48 46.9 96% 46 30.1 1019.0
02 01:51 NW 7 0.00 Fair CLR 48.9 46.9 93% 46 30.1 1018.8 0.01
02 00:51 N 3 0.00 Fair CLR 51.1 48 55.9 51.1 89% 30.1 1018.7
01 23:51 N 7 0.00 Partly Cloudy SCT100 53.1 48.9 86% 30.09 1018.5
01 22:51 N 3 0.00 Overcast OVC100 55 51.1 87% 30.09 1018.3
01 21:51 N 6 0.00 Overcast OVC090 55 51.1 87% 30.08 1017.9
01 20:51 N 3 0.00 Overcast OVC075 55.9 52 87% 30.04 1016.8
01 19:51 NE 6 0.00 Overcast SCT042 OVC070 55.9 52 87% 30.02 1015.8
01 18:51 NE 7 0.00 Mostly Cloudy SCT037 BKN090 55.9 52 57 55 87% 29.99 1014.9
01 17:51 NE 5 0.00 Overcast OVC037 55.9 51.1 84% 30 1015.2
01 16:51 N 16 G 26 0.00 Overcast OVC016 55.9 51.1 84% 29.97 1014.1
01 15:51 NE 15 G 23 0.00 Overcast OVC011 55.9 54 93% 29.93 1012.8
01 14:51 N 14 G 21 0.00 Overcast OVC007 55 54 96% 29.94 1013.1
01 13:51 N 10 0.00 Overcast BKN007 OVC012 55.9 55 97% 30 1015.2
01 12:51 NE 16 G 20 0.00 Overcast OVC007 55.9 55 57.9 55 97% 29.94 1013.2 0.01
Date Time (cdt) Wind (mph) Vis. (mi.) Weather Sky Cond. Air Dwpt Max. Min. Relative Humidity Wind Chill (°F) Heat Index (°F) altimeter (in) sea level (mb) 1 hr 3 hr 6 hr
6 hour
Temperature (ºF) Pressure Precipitation (in)